CW5430 Weather Reports


Display with metric or nautical units.
time (UTC)temp
F
wind
direction
speed
MPH
gust
MPH
rain 1hr
in
rain 24hr
in
rain mn
in
humidity
%
barometer
mb
20260504173513 72 299 2.0 6.0 0.00 0.00 0.00 38 1011.8
20260504173033 71 260 2.0 7.0 0.00 0.00 0.00 38 1011.9
20260504172508 71 267 3.0 9.0 0.00 0.00 0.00 36 1011.9
20260504172009 71 231 2.0 9.0 0.00 0.00 0.00 35 1012.0
20260504171523 71 257 4.0 8.0 0.00 0.00 0.00 32 1012.2
20260504171009 71 185 3.0 8.0 0.00 0.00 0.00 35 1012.2
20260504170505 71 317 2.0 7.0 0.00 0.00 0.00 38 1012.2
20260504151013 67 311 1.0 6.0 0.00 0.00 0.00 46 1013.7
20260504150511 67 290 2.0 9.0 0.00 0.00 0.00 43 1013.8
20260504141014 63 235 2.0 7.0 0.00 0.00 0.00 56 1013.9
20260504140508 63 228 1.0 8.0 0.00 0.00 0.00 54 1013.9
20260504130510 59 235 3.0 7.0 0.00 0.00 0.00 61 1014.3
20260504110507 49 234 1.0 5.0 0.00 0.00 0.00 77 1014.7
20260504100506 48 254 0.0 6.0 0.00 0.00 0.00 72 1014.7
20260504082007 45 262 0.0 2.0 0.00 0.00 0.00 66 1014.7
20260504081524 45 262 0.0 2.0 0.00 0.00 0.00 66 1014.6
20260504081007 45 273 0.0 2.0 0.00 0.00 0.00 66 1014.6
20260504080503 44 242 0.0 0.0 0.00 0.00 0.00 64 1014.6
20260504050507 47 258 0.0 2.0 0.00 0.00 0.00 56 1014.4
20260504045507 47 258 0.0 2.0 0.00 0.00 0.00 56 1014.3
20260504045009 48 265 0.0 2.0 0.00 0.00 0.00 56 1014.4
20260504044537 48 242 0.0 2.0 0.00 0.00 0.00 55 1014.4
20260504044010 48 257 0.0 2.0 0.00 0.00 0.00 54 1014.4
20260504043510 48 254 0.0 2.0 0.00 0.00 0.00 54 1014.3
20260504043033 49 244 0.0 2.0 0.00 0.00 0.00 53 1014.3
20260504042505 49 254 0.0 2.0 0.00 0.00 0.00 53 1014.2
20260504042009 49 246 0.0 2.0 0.00 0.00 0.00 52 1014.2
20260504041517 49 246 0.0 2.0 0.00 0.00 0.00 52 1014.1
20260504041007 49 249 0.0 2.0 0.00 0.00 0.00 52 1014.0
20260504040510 49 254 0.0 2.0 0.00 0.00 0.00 52 1014.0
20260504040022 50 248 0.0 2.0 0.00 0.00 0.00 51 1014.0
20260504035511 50 286 0.0 2.0 0.00 0.00 0.00 51 1014.0
20260504035010 50 249 0.0 2.0 0.00 0.00 0.00 51 1013.9
20260504034533 50 277 1.0 2.0 0.00 0.00 0.00 51 1013.9
20260504034006 50 271 0.0 2.0 0.00 0.00 0.00 51 1013.8
20260504033515 50 248 0.0 6.0 0.00 0.00 0.00 51 1013.9
20260504033037 50 252 1.0 6.0 0.00 0.00 0.00 52 1013.8
20260504032507 49 250 0.0 2.0 0.00 0.00 0.00 51 1013.9
20260504032009 50 229 0.0 2.0 0.00 0.00 0.00 51 1013.9
20260504031516 50 258 0.0 2.0 0.00 0.00 0.00 50 1013.8
20260504031008 50 221 0.0 2.0 0.00 0.00 0.00 51 1013.8
20260504030507 50 261 1.0 2.0 0.00 0.00 0.00 50 1013.8
20260504030020 50 244 0.0 2.0 0.00 0.00 0.00 51 1013.8
20260504025508 49 231 0.0 2.0 0.00 0.00 0.00 51 1013.8
20260504025009 49 277 1.0 2.0 0.00 0.00 0.00 51 1013.9
20260504024525 49 238 0.0 2.0 0.00 0.00 0.00 51 1013.9
20260504024012 49 244 0.0 2.0 0.00 0.00 0.00 51 1013.9
20260504023512 49 258 0.0 2.0 0.00 0.00 0.00 51 1013.9
20260504023026 49 242 0.0 2.0 0.00 0.00 0.00 51 1013.9
20260504022510 49 240 0.0 2.0 0.00 0.00 0.00 53 1013.9
20260504022012 49 236 0.0 2.0 0.00 0.00 0.00 52 1013.9
20260504021533 49 259 0.0 2.0 0.00 0.00 0.00 54 1014.0
20260504021009 49 242 0.0 2.0 0.00 0.00 0.00 52 1013.9
20260504020507 49 242 0.0 2.0 0.00 0.00 0.00 53 1013.9
20260504020020 49 245 0.0 2.0 0.00 0.00 0.00 53 1013.8
20260504015508 49 245 0.0 2.0 0.00 0.00 0.00 51 1013.8
20260504015009 49 234 0.0 2.0 0.00 0.00 0.00 51 1013.8
20260504014523 49 234 0.0 2.0 0.00 0.00 0.00 51 1013.7
20260504014010 49 221 0.0 2.0 0.00 0.00 0.00 52 1013.7
20260504013509 49 232 0.0 2.0 0.00 0.00 0.00 52 1013.7
20260504013033 50 248 0.0 2.0 0.00 0.00 0.00 52 1013.6
20260504012508 50 229 0.0 2.0 0.00 0.00 0.00 52 1013.5
20260504012010 50 232 0.0 2.0 0.00 0.00 0.00 53 1013.5
20260504011526 50 236 0.0 2.0 0.00 0.00 0.00 50 1013.4
20260504011011 50 236 0.0 2.0 0.00 0.00 0.00 50 1013.3
20260504010520 51 236 0.0 2.0 0.00 0.00 0.00 50 1013.3
20260504010028 51 236 0.0 0.0 0.00 0.00 0.00 50 1013.3
20260504005508 52 236 0.0 1.0 0.00 0.00 0.00 49 1013.2
20260504005006 52 236 0.0 1.0 0.00 0.00 0.00 49 1013.2
20260504004520 52 236 0.0 1.0 0.00 0.00 0.00 46 1013.1
20260504004010 53 236 0.0 2.0 0.00 0.00 0.00 46 1013.1
20260504003510 53 236 0.0 2.0 0.00 0.00 0.00 46 1012.9
20260504003023 54 226 0.0 2.0 0.00 0.00 0.00 45 1012.8
20260504002509 54 226 0.0 2.0 0.00 0.00 0.00 44 1012.8
20260504002010 55 233 0.0 2.0 0.00 0.00 0.00 46 1012.8
20260504001526 55 223 0.0 2.0 0.00 0.00 0.00 44 1012.7
20260504001010 55 223 0.0 2.0 0.00 0.00 0.00 43 1012.7
20260504000508 56 215 0.0 2.0 0.00 0.00 0.00 40 1012.6
20260504000028 56 249 0.0 2.0 0.00 0.00 0.00 39 1012.5
20260503235507 56 254 0.0 2.0 0.00 0.00 0.00 39 1012.4
20260503235008 56 219 0.0 3.0 0.00 0.00 0.00 39 1012.4
20260503234528 56 255 0.0 3.0 0.00 0.00 0.00 38 1012.3
20260503234016 57 260 1.0 4.0 0.00 0.00 0.00 37 1012.2
20260503233507 57 271 1.0 4.0 0.00 0.00 0.00 38 1012.3
20260503233019 57 240 1.0 3.0 0.00 0.00 0.00 36 1012.2
20260503232510 57 251 0.0 3.0 0.00 0.00 0.00 39 1012.2
20260503232015 58 233 1.0 3.0 0.00 0.00 0.00 37 1012.1
20260503231525 58 253 0.0 5.0 0.00 0.00 0.00 36 1012.1
20260503231012 58 251 2.0 8.0 0.00 0.00 0.00 36 1012.1
20260503230509 58 272 1.0 8.0 0.00 0.00 0.00 36 1012.1
20260503230028 58 284 2.0 8.0 0.00 0.00 0.00 36 1012.1
20260503225507 58 279 1.0 4.0 0.00 0.00 0.00 34 1011.9
20260503225009 58 292 1.0 7.0 0.00 0.00 0.00 35 1011.9
20260503224515 59 305 1.0 5.0 0.00 0.00 0.00 35 1011.9
20260503224009 59 302 1.0 4.0 0.00 0.00 0.00 34 1011.9
20260503223511 59 275 2.0 6.0 0.00 0.00 0.00 32 1011.9
20260503223020 59 299 1.0 6.0 0.00 0.00 0.00 35 1011.8
20260503222510 59 306 2.0 4.0 0.00 0.00 0.00 34 1011.8
20260503222010 59 250 1.0 4.0 0.00 0.00 0.00 33 1011.8
20260503221530 59 216 2.0 4.0 0.00 0.00 0.00 33 1011.7
20260503221003 60 332 1.0 4.0 0.00 0.00 0.00 34 1011.8
20260503220504 60 275 1.0 5.0 0.00 0.00 0.00 33 1011.8
20260503220008 60 320 1.0 5.0 0.00 0.00 0.00 34 1011.7
20260503215506 60 268 2.0 5.0 0.00 0.00 0.00 31 1011.8
20260503215008 60 240 1.0 5.0 0.00 0.00 0.00 34 1011.9
20260503214513 61 333 2.0 5.0 0.00 0.00 0.00 32 1011.8
20260503214012 61 272 3.0 5.0 0.00 0.00 0.00 32 1011.8
20260503213509 61 300 1.0 4.0 0.00 0.00 0.00 33 1011.7
20260503213028 61 173 2.0 5.0 0.00 0.00 0.00 31 1011.8
20260503212509 61 222 2.0 8.0 0.00 0.00 0.00 32 1011.8
20260503212012 61 279 2.0 8.0 0.00 0.00 0.00 31 1011.8
20260503211522 61 224 3.0 6.0 0.00 0.00 0.00 32 1011.9
20260503211014 61 248 1.0 4.0 0.00 0.00 0.00 32 1011.9
20260503210508 61 284 1.0 4.0 0.00 0.00 0.00 35 1011.9
20260503210006 61 296 2.0 5.0 0.00 0.00 0.00 32 1011.9
20260503205504 61 241 2.0 6.0 0.00 0.00 0.00 33 1011.9
20260503205008 61 308 2.0 7.0 0.00 0.00 0.00 32 1012.0
20260503204511 61 276 3.0 7.0 0.00 0.00 0.00 32 1012.0
20260503204008 61 293 2.0 9.0 0.00 0.00 0.00 33 1012.1
20260503203507 61 257 3.0 9.0 0.00 0.00 0.00 34 1012.3
20260503203016 62 320 2.0 7.0 0.00 0.00 0.00 34 1012.2
20260503202509 62 305 2.0 6.0 0.00 0.00 0.00 34 1012.2
20260503202010 61 306 2.0 7.0 0.00 0.00 0.00 35 1012.2
20260503201528 60 288 2.0 7.0 0.00 0.00 0.00 36 1012.3
20260503201008 60 315 2.0 5.0 0.00 0.00 0.00 35 1012.2
20260503200510 61 255 1.0 8.0 0.00 0.00 0.00 36 1012.3
20260503200030 60 246 1.0 15.0 0.00 0.00 0.00 37 1012.3
20260503195509 60 238 2.0 15.0 0.00 0.00 0.00 35 1012.3
20260503195006 60 277 5.0 10.0 0.00 0.00 0.00 34 1012.3
20260503194510 60 315 2.0 11.0 0.00 0.00 0.00 37 1012.4
20260503194007 60 288 1.0 11.0 0.00 0.00 0.00 35 1012.4
20260503193506 60 283 2.0 7.0 0.00 0.00 0.00 34 1012.7
20260503193013 60 283 1.0 9.0 0.00 0.00 0.00 35 1012.7
20260503192507 60 279 3.0 9.0 0.00 0.00 0.00 33 1012.8
20260503192011 60 196 2.0 11.0 0.00 0.00 0.00 33 1012.7
20260503191522 60 307 3.0 11.0 0.00 0.00 0.00 32 1012.7
20260503191007 60 308 3.0 9.0 0.00 0.00 0.00 37 1012.8
20260503190507 59 275 3.0 9.0 0.00 0.00 0.00 35 1012.9
20260503190024 58 308 3.0 9.0 0.00 0.00 0.00 34 1012.8
20260503185510 58 28 2.0 7.0 0.00 0.00 0.00 35 1012.9
20260503185011 59 319 3.0 8.0 0.00 0.00 0.00 35 1013.0
20260503184527 59 290 3.0 8.0 0.00 0.00 0.00 32 1013.0
20260503184004 59 43 3.0 8.0 0.00 0.00 0.00 35 1013.0
20260503183512 59 310 2.0 5.0 0.00 0.00 0.00 38 1013.0
20260503183023 59 285 2.0 5.0 0.00 0.00 0.00 34 1013.1
20260503182507 59 279 2.0 8.0 0.00 0.00 0.00 37 1013.2
20260503182009 59 257 1.0 7.0 0.00 0.00 0.00 36 1013.3
20260503181526 59 313 3.0 8.0 0.00 0.00 0.00 33 1013.1
20260503181008 58 55 2.0 8.0 0.00 0.00 0.00 38 1013.2
20260503180510 58 326 3.0 11.0 0.00 0.00 0.00 40 1013.2
20260503180020 58 286 2.0 11.0 0.00 0.00 0.00 40 1013.2
20260503175510 58 306 2.0 7.0 0.00 0.00 0.00 37 1013.1
20260503175010 56 188 2.0 7.0 0.00 0.00 0.00 37 1013.3
20260503174523 56 293 2.0 9.0 0.00 0.00 0.00 35 1013.3
20260503174008 57 305 2.0 9.0 0.00 0.00 0.00 38 1013.4